User: anonymous   Login
Location: Lake Crest
(37.6062°N, 88.9176°W)
Time: 14:47:17
(UTC+00:00)
Language:

STARLINK-59 - Orbit

View from above orbital plane
View from above orbital plane
View from above satellite
View from above satellite

Ground track
Ground track

The orbit data is extracted from the following two-line orbital elements,

1 44271C 19029AN  20049.52146852 -.00019786  00000-0 -11327-2 0   492
2 44271  52.9987  33.7003 0001848  59.8817 142.3997 15.12150482    10
Epoch (UTC): 18 February 2020 12:30:54
Eccentricity: 0.0001848
inclination: 52.9987°
perigee height: 528 km
apogee height: 531 km
right ascension of ascending node: 33.7003°
argument of perigee: 59.8817°
revolutions per day: 15.12150482
mean anomaly at epoch: 142.3997°
orbit number at epoch: 1

The dashed part of the orbit path shows where the satellite is in the earth's shadow,  

DLR